Find Starlink 1663

NORAD ID: 46535 Int'l Des: 2020-070 Owner: SPXS Country: US Constellation: starlink operational
LEOCIRCULAR

Live Position

Loading 3D Globe...

About Starlink 1663

Description loading...

Upcoming Passes

Passes for default location (London). Set your location on the main map for personalized predictions.

Altitude History

Loading altitude history...

Two-Line Element Set

1 46535U 20070D 26126.00002315 .00110001 00000-0 63237-3 0 9997
2 46535 53.0356 211.4446 0007575 349.8678 224.4984 15.77905444 5990
Epoch: May 6, 2026 • Age: 42 hours

Current Status

Altitude 338.2 km
Velocity 7.71 km/s
Sub-Earth Point 45.71°N, 118.4°E
Launch Date Oct 6, 2020
Age 5.5 years
Type internet

Technical Details

Classification Payload
Mass 260.00 kg
Dry Mass 248.00 kg
Total Mass 260.00 kg
Length 0.20 m
Diameter 2.80 m
Span 9.00 m
Shape Box + pan
Manufacturer SPXS
Bus Type Starlink
Phase Status In Orbit
Owner/State SPXS/US

Most Searched